• In Czech Republic
  • List of Countries
  • For 7 days
  • Water Temperature
  • Satellite Maps
  • Weather Map
  • Weather Widgets
  • user-avatar
    Login

    Hourly Weather San Francisco Atezcatzinco

    Today, 24 November, Friday

    Time Temperature Precipitation Wind Pressure Humidity
    00:00 +7°C° 0 mm 1 mps 564 mmHg 83%
    01:00 +7°C° 0 mm 1 mps 564 mmHg 83%
    02:00 +6°C° 0 mm 1 mps 563 mmHg 83%
    03:00 +6°C° 0 mm 1 mps 563 mmHg 81%
    04:00 +6°C° 0 mm 1 mps 563 mmHg 80%
    05:00 +6°C° 0 mm 1 mps 563 mmHg 78%
    06:00 +8°C° 0 mm 1 mps 564 mmHg 69%
    07:00 +9°C° 0 mm 1 mps 565 mmHg 59%
    08:00 +11°C° 0 mm 1 mps 566 mmHg 50%
    09:00 +13°C° 0 mm 1 mps 567 mmHg 43%
    10:00 +15°C° 0 mm 2 mps 567 mmHg 36%
    11:00 +17°C° 0 mm 2 mps 568 mmHg 29%
    12:00 +17°C° 0 mm 2 mps 568 mmHg 29%
    13:00 +17°C° 0 mm 2 mps 567 mmHg 29%
    14:00 +18°C° 0 mm 2 mps 567 mmHg 29%
    15:00 +16°C° 0 mm 2 mps 566 mmHg 38%
    16:00 +14°C° 0 mm 2 mps 565 mmHg 47%
    17:00 +12°C° 0 mm 1 mps 564 mmHg 56%
    18:00 +12°C° 0 mm 1 mps 565 mmHg 60%
    19:00 +11°C° 0 mm 1 mps 565 mmHg 65%
    20:00 +10°C° 0 mm 1 mps 565 mmHg 70%
    21:00 +10°C° 0 mm 1 mps 565 mmHg 71%
    22:00 +9°C° 0 mm 1 mps 565 mmHg 71%
    23:00 +9°C° 0 mm 1 mps 564 mmHg 72%

    Tomorrow, 25 November, Saturday

    Time Temperature Precipitation Wind Pressure Humidity
    00:00 +9°C° 0 mm 1 mps 564 mmHg 71%
    01:00 +8°C° 0 mm 1 mps 564 mmHg 71%
    02:00 +8°C° 0 mm 1 mps 563 mmHg 70%
    03:00 +8°C° 0 mm 1 mps 563 mmHg 68%
    04:00 +7°C° 0 mm 1 mps 563 mmHg 66%
    05:00 +7°C° 0 mm 1 mps 563 mmHg 64%
    06:00 +9°C° 0 mm 1 mps 565 mmHg 56%
    07:00 +11°C° 0 mm 1 mps 566 mmHg 48%
    08:00 +13°C° 0 mm 1 mps 567 mmHg 41%
    09:00 +15°C° 0 mm 1 mps 568 mmHg 35%
    10:00 +17°C° 0 mm 2 mps 569 mmHg 29%
    11:00 +19°C° 0 mm 2 mps 569 mmHg 24%
    12:00 +19°C° 0 mm 2 mps 569 mmHg 24%
    13:00 +20°C° 0 mm 2 mps 569 mmHg 25%
    14:00 +20°C° 0 mm 2 mps 568 mmHg 25%
    15:00 +18°C° 0 mm 2 mps 567 mmHg 34%
    16:00 +16°C° 0 mm 2 mps 567 mmHg 43%
    17:00 +14°C° 0 mm 2 mps 566 mmHg 52%
    18:00 +13°C° 0 mm 2 mps 566 mmHg 58%
    19:00 +12°C° 0 mm 1 mps 566 mmHg 64%
    20:00 +11°C° 0 mm 1 mps 566 mmHg 69%
    21:00 +11°C° 0 mm 1 mps 566 mmHg 69%
    22:00 +10°C° 0 mm 1 mps 566 mmHg 68%
    23:00 +10°C° 0 mm 1 mps 566 mmHg 68%

    Day after tomorrow, 26 November, Sunday

    Time Temperature Precipitation Wind Pressure Humidity
    00:00 +9°C° 0 mm 1 mps 566 mmHg 65%
    01:00 +8°C° 0 mm 2 mps 565 mmHg 61%
    02:00 +7°C° 0 mm 2 mps 565 mmHg 58%
    03:00 +7°C° 0 mm 2 mps 565 mmHg 56%
    04:00 +7°C° 0 mm 2 mps 565 mmHg 53%
    05:00 +6°C° 0 mm 2 mps 565 mmHg 50%
    06:00 +8°C° 0 mm 2 mps 566 mmHg 45%
    07:00 +10°C° 0 mm 3 mps 568 mmHg 40%
    08:00 +11°C° 0 mm 3 mps 569 mmHg 34%
    09:00 +13°C° 0 mm 4 mps 570 mmHg 32%
    10:00 +14°C° 0 mm 4 mps 570 mmHg 30%
    11:00 +16°C° 0 mm 5 mps 571 mmHg 28%
    12:00 +17°C° 0 mm 4 mps 570 mmHg 29%
    13:00 +17°C° 0 mm 4 mps 570 mmHg 30%
    14:00 +17°C° 0 mm 4 mps 569 mmHg 31%
    15:00 +14°C° 0 mm 3 mps 568 mmHg 40%
    16:00 +12°C° 0 mm 3 mps 567 mmHg 48%
    17:00 +10°C° 0 mm 3 mps 566 mmHg 57%
    18:00 +9°C° 0 mm 3 mps 566 mmHg 64%
    19:00 +8°C° 0 mm 2 mps 566 mmHg 71%
    20:00 +7°C° 0 mm 2 mps 566 mmHg 78%
    21:00 +7°C° 0 mm 2 mps 566 mmHg 78%
    22:00 +6°C° 0 mm 2 mps 566 mmHg 78%
    23:00 +6°C° 0 mm 2 mps 566 mmHg 78%

    27 November, Monday

    Time Temperature Precipitation Wind Pressure Humidity
    00:00 +6°C° 0 mm 2 mps 565 mmHg 78%
    01:00 +5°C° 0 mm 2 mps 565 mmHg 78%
    02:00 +5°C° 0 mm 2 mps 565 mmHg 79%
    03:00 +5°C° 0 mm 2 mps 565 mmHg 79%
    04:00 +5°C° 0 mm 2 mps 564 mmHg 80%
    05:00 +4°C° 0 mm 2 mps 564 mmHg 81%
    06:00 +6°C° 0 mm 2 mps 566 mmHg 74%
    07:00 +8°C° 0 mm 2 mps 567 mmHg 67%
    08:00 +10°C° 0 mm 2 mps 568 mmHg 61%
    09:00 +13°C° 0 mm 2 mps 568 mmHg 54%
    10:00 +15°C° 0 mm 2 mps 569 mmHg 47%
    11:00 +16°C° 0 mm 2 mps 569 mmHg 40%
    12:00 +17°C° 0 mm 2 mps 569 mmHg 40%
    13:00 +17°C° 0 mm 2 mps 568 mmHg 39%
    14:00 +18°C° 0 mm 2 mps 568 mmHg 38%
    15:00 +16°C° 0 mm 2 mps 567 mmHg 46%
    16:00 +14°C° 0 mm 2 mps 566 mmHg 55%
    17:00 +13°C° 0 mm 2 mps 565 mmHg 63%
    18:00 +12°C° 0 mm 2 mps 566 mmHg 69%
    19:00 +11°C° 0 mm 1 mps 566 mmHg 74%
    20:00 +10°C° 0 mm 1 mps 566 mmHg 79%
    21:00 +10°C° 0 mm 1 mps 565 mmHg 81%
    22:00 +9°C° 0 mm 1 mps 565 mmHg 83%
    23:00 +9°C° 0 mm 1 mps 565 mmHg 85%

    28 November, Tuesday

    Time Temperature Precipitation Wind Pressure Humidity
    00:00 +8°C° 0 mm 1 mps 564 mmHg 84%
    01:00 +8°C° 0 mm 1 mps 564 mmHg 84%
    02:00 +8°C° 0 mm 1 mps 563 mmHg 83%
    03:00 +7°C° 0 mm 1 mps 563 mmHg 81%
    04:00 +7°C° 0 mm 1 mps 563 mmHg 79%
    05:00 +7°C° 0 mm 1 mps 563 mmHg 77%
    06:00 +9°C° 0 mm 1 mps 564 mmHg 67%
    07:00 +11°C° 0 mm 1 mps 566 mmHg 56%
    08:00 +13°C° 0 mm 1 mps 567 mmHg 45%
    09:00 +15°C° 0 mm 1 mps 567 mmHg 39%
    10:00 +17°C° 0 mm 2 mps 568 mmHg 32%
    11:00 +19°C° 0 mm 2 mps 568 mmHg 26%
    12:00 +19°C° 0 mm 2 mps 568 mmHg 27%
    13:00 +19°C° 0 mm 2 mps 568 mmHg 28%
    14:00 +20°C° 0 mm 2 mps 567 mmHg 29%
    15:00 +18°C° 0 mm 2 mps 567 mmHg 38%
    16:00 +16°C° 0 mm 1 mps 566 mmHg 47%
    17:00 +14°C° 0 mm 1 mps 565 mmHg 56%
    18:00 +13°C° 0 mm 1 mps 565 mmHg 62%
    19:00 +11°C° 0 mm 0 mps 565 mmHg 67%
    20:00 +10°C° 0 mm 0 mps 566 mmHg 73%
    21:00 +10°C° 0 mm 0 mps 565 mmHg 73%
    22:00 +10°C° 0 mm 0 mps 565 mmHg 73%
    23:00 +10°C° 0 mm 1 mps 565 mmHg 74%

    29 November, Wednesday

    Time Temperature Precipitation Wind Pressure Humidity
    00:00 +10°C° 0 mm 1 mps 565 mmHg 74%
    01:00 +9°C° 0 mm 1 mps 564 mmHg 73%
    02:00 +9°C° 0 mm 1 mps 564 mmHg 73%
    03:00 +9°C° 0 mm 1 mps 564 mmHg 74%
    04:00 +8°C° 0 mm 1 mps 564 mmHg 75%
    05:00 +8°C° 0 mm 1 mps 564 mmHg 75%
    06:00 +10°C° 0 mm 1 mps 566 mmHg 69%
    07:00 +12°C° 0 mm 2 mps 567 mmHg 63%
    08:00 +13°C° 0 mm 2 mps 568 mmHg 56%
    09:00 +15°C° 0 mm 2 mps 569 mmHg 48%
    10:00 +17°C° 0 mm 2 mps 570 mmHg 40%
    11:00 +18°C° 0 mm 3 mps 570 mmHg 32%
    12:00 +18°C° 0 mm 3 mps 570 mmHg 34%
    13:00 +18°C° 0 mm 3 mps 569 mmHg 36%
    14:00 +19°C° 0 mm 3 mps 569 mmHg 38%
    15:00 +17°C° 0 mm 3 mps 568 mmHg 48%
    16:00 +14°C° 0 mm 3 mps 568 mmHg 58%
    17:00 +13°C° 0 mm 2 mps 567 mmHg 68%
    18:00 +12°C° 0 mm 2 mps 567 mmHg 72%
    19:00 +10°C° 0 mm 2 mps 567 mmHg 77%
    20:00 +10°C° 0 mm 2 mps 567 mmHg 81%
    21:00 +9°C° 0 mm 2 mps 567 mmHg 83%
    22:00 +8°C° 0 mm 2 mps 566 mmHg 84%
    23:00 +8°C° 0 mm 2 mps 566 mmHg 86%
    Show more